| time (UTC) | temp F | wind direction | speed knots | gust knots | rain 1hr in | rain 24hr in | rain mn in | humidity % | barometer mb |
| 20260504050445 | 47 | 248 | 2.6 | 2.6 | 0.00 | 0.00 | 0.00 | 47 | 1010.6 |
| 20260504045942 | 47 | 254 | 4.3 | 5.2 | 0.00 | 0.00 | 0.00 | 47 | 1010.6 |
| 20260504045437 | 47 | 248 | 2.6 | 4.3 | 0.00 | 0.00 | 0.00 | 47 | 1010.6 |
| 20260504044934 | 47 | 230 | 2.6 | 2.6 | 0.00 | 0.00 | 0.00 | 46 | 1010.6 |
| 20260504044432 | 47 | 242 | 3.5 | 4.3 | 0.00 | 0.00 | 0.00 | 46 | 1010.6 |
| 20260504043929 | 48 | 205 | 2.6 | 2.6 | 0.00 | 0.00 | 0.00 | 46 | 1010.6 |
| 20260504043426 | 48 | 200 | 2.6 | 2.6 | 0.00 | 0.00 | 0.00 | 46 | 1010.6 |
| 20260504042923 | 48 | 197 | 2.6 | 1.7 | 0.00 | 0.00 | 0.00 | 46 | 1010.2 |
| 20260504042420 | 48 | 222 | 1.7 | 1.7 | 0.00 | 0.00 | 0.00 | 46 | 1010.6 |
| 20260504041916 | 48 | 232 | 3.5 | 4.3 | 0.00 | 0.00 | 0.00 | 45 | 1010.6 |
| 20260504041412 | 49 | 221 | 3.5 | 4.3 | 0.00 | 0.00 | 0.00 | 44 | 1010.6 |
| 20260504040909 | 49 | 222 | 2.6 | 2.6 | 0.00 | 0.00 | 0.00 | 44 | 1010.6 |
| 20260504040407 | 49 | 227 | 3.5 | 5.2 | 0.00 | 0.00 | 0.00 | 44 | 1010.6 |
| 20260504035902 | 49 | 239 | 2.6 | 2.6 | 0.00 | 0.00 | 0.00 | 43 | 1010.6 |
| 20260504035400 | 49 | 259 | 2.6 | 2.6 | 0.00 | 0.00 | 0.00 | 43 | 1010.6 |
| 20260504034856 | 49 | 225 | 2.6 | 2.6 | 0.00 | 0.00 | 0.00 | 43 | 1010.6 |
| 20260504034354 | 49 | 232 | 2.6 | 1.7 | 0.00 | 0.00 | 0.00 | 43 | 1011.0 |
| 20260504033850 | 49 | 230 | 2.6 | 1.7 | 0.00 | 0.00 | 0.00 | 44 | 1010.6 |
| 20260504033349 | 49 | 239 | 2.6 | 2.6 | 0.00 | 0.00 | 0.00 | 44 | 1010.6 |
| 20260504032845 | 49 | 230 | 2.6 | 2.6 | 0.00 | 0.00 | 0.00 | 44 | 1010.6 |
| 20260504032342 | 49 | 215 | 2.6 | 2.6 | 0.00 | 0.00 | 0.00 | 43 | 1010.6 |
| 20260504031839 | 49 | 229 | 1.7 | 1.7 | 0.00 | 0.00 | 0.00 | 44 | 1011.0 |
| 20260504031336 | 49 | 245 | 3.5 | 2.6 | 0.00 | 0.00 | 0.00 | 43 | 1011.3 |
| 20260504030832 | 49 | 233 | 3.5 | 5.2 | 0.00 | 0.00 | 0.00 | 44 | 1011.3 |
| 20260504030330 | 50 | 242 | 1.7 | 1.7 | 0.00 | 0.00 | 0.00 | 43 | 1011.0 |
| 20260504025826 | 49 | 257 | 4.3 | 5.2 | 0.00 | 0.00 | 0.00 | 43 | 1010.6 |
| 20260504025323 | 49 | 239 | 2.6 | 2.6 | 0.00 | 0.00 | 0.00 | 44 | 1011.0 |
| 20260504024820 | 49 | 232 | 3.5 | 5.2 | 0.00 | 0.00 | 0.00 | 44 | 1011.0 |
| 20260504024316 | 49 | 225 | 3.5 | 4.3 | 0.00 | 0.00 | 0.00 | 44 | 1011.0 |
| 20260504023813 | 49 | 269 | 3.5 | 2.6 | 0.00 | 0.00 | 0.00 | 44 | 1011.0 |
| 20260504023309 | 49 | 252 | 3.5 | 4.3 | 0.00 | 0.00 | 0.00 | 45 | 1011.3 |
| 20260504022805 | 49 | 236 | 2.6 | 2.6 | 0.00 | 0.00 | 0.00 | 45 | 1011.0 |
| 20260504022304 | 49 | 231 | 1.7 | 1.7 | 0.00 | 0.00 | 0.00 | 45 | 1011.3 |
| 20260504021758 | 49 | 234 | 3.5 | 2.6 | 0.00 | 0.00 | 0.00 | 45 | 1011.0 |
| 20260504021256 | 49 | 251 | 2.6 | 2.6 | 0.00 | 0.00 | 0.00 | 47 | 1011.0 |
| 20260504020753 | 49 | 217 | 2.6 | 4.3 | 0.00 | 0.00 | 0.00 | 46 | 1011.0 |
| 20260504020249 | 49 | 252 | 2.6 | 1.7 | 0.00 | 0.00 | 0.00 | 46 | 1011.3 |
| 20260504015745 | 49 | 260 | 4.3 | 5.2 | 0.00 | 0.00 | 0.00 | 46 | 1011.3 |
| 20260504015242 | 49 | 252 | 4.3 | 6.1 | 0.00 | 0.00 | 0.00 | 47 | 1011.3 |
| 20260504014738 | 49 | 280 | 4.3 | 7.0 | 0.00 | 0.00 | 0.00 | 47 | 1011.3 |
| 20260504014235 | 49 | 256 | 2.6 | 2.6 | 0.00 | 0.00 | 0.00 | 47 | 1011.3 |
| 20260504013732 | 48 | 230 | 4.3 | 5.2 | 0.00 | 0.00 | 0.00 | 48 | 1011.7 |
| 20260504013230 | 49 | 233 | 5.2 | 6.1 | 0.00 | 0.00 | 0.00 | 50 | 1011.3 |
| 20260504012726 | 50 | 247 | 8.7 | 13.0 | 0.00 | 0.00 | 0.00 | 45 | 1011.3 |
| 20260504012224 | 50 | 341 | 4.3 | 5.2 | 0.00 | 0.00 | 0.00 | 43 | 1011.0 |
| 20260504011721 | 50 | 274 | 2.6 | 4.3 | 0.00 | 0.00 | 0.00 | 44 | 1011.0 |
| 20260504011218 | 50 | 231 | 7.0 | 7.8 | 0.00 | 0.00 | 0.00 | 43 | 1011.0 |
| 20260504010714 | 49 | 244 | 5.2 | 7.0 | 0.00 | 0.00 | 0.00 | 46 | 1011.0 |
| 20260504010210 | 49 | 231 | 4.3 | 5.2 | 0.00 | 0.00 | 0.00 | 47 | 1011.0 |
| 20260504005706 | 49 | 241 | 5.2 | 8.7 | 0.00 | 0.00 | 0.00 | 46 | 1011.0 |
| 20260504005203 | 49 | 265 | 3.5 | 5.2 | 0.00 | 0.00 | 0.00 | 46 | 1011.0 |
| 20260504004702 | 49 | 320 | 7.8 | 9.6 | 0.00 | 0.00 | 0.00 | 46 | 1011.0 |
| 20260504004158 | 49 | 326 | 4.3 | 5.2 | 0.00 | 0.00 | 0.00 | 45 | 1011.0 |
| 20260504003654 | 49 | 255 | 12.2 | 13.9 | 0.00 | 0.00 | 0.00 | 45 | 1010.6 |
| 20260504003151 | 49 | 270 | 4.3 | 6.1 | 0.00 | 0.00 | 0.00 | 46 | 1011.0 |
| 20260504002648 | 49 | 239 | 2.6 | 4.3 | 0.00 | 0.00 | 0.00 | 46 | 1010.6 |
| 20260504002145 | 49 | 253 | 3.5 | 5.2 | 0.00 | 0.00 | 0.00 | 45 | 1010.6 |
| 20260504001643 | 50 | 290 | 2.6 | 1.7 | 0.00 | 0.00 | 0.00 | 46 | 1011.0 |
| 20260504001139 | 50 | 319 | 6.1 | 7.8 | 0.00 | 0.00 | 0.00 | 45 | 1011.0 |
| 20260504000636 | 50 | 321 | 5.2 | 8.7 | 0.00 | 0.00 | 0.00 | 45 | 1010.6 |
| 20260504000134 | 50 | 285 | 5.2 | 7.8 | 0.00 | 0.00 | 0.00 | 45 | 1010.6 |
| 20260503235631 | 50 | 328 | 7.8 | 8.7 | 0.00 | 0.00 | 0.00 | 44 | 1010.6 |
| 20260503235128 | 50 | 345 | 7.8 | 13.0 | 0.00 | 0.00 | 0.00 | 44 | 1010.6 |
| 20260503234626 | 51 | 238 | 7.0 | 12.2 | 0.00 | 0.00 | 0.00 | 42 | 1010.6 |
| 20260503234124 | 51 | 309 | 3.5 | 4.3 | 0.00 | 0.00 | 0.00 | 41 | 1010.2 |
| 20260503233621 | 51 | 295 | 4.3 | 7.0 | 0.00 | 0.00 | 0.00 | 40 | 1010.2 |
| 20260503233116 | 51 | 322 | 3.5 | 2.6 | 0.00 | 0.00 | 0.00 | 41 | 1010.2 |
| 20260503232613 | 51 | 267 | 1.7 | 1.7 | 0.00 | 0.00 | 0.00 | 41 | 1010.2 |
| 20260503232110 | 51 | 292 | 3.5 | 7.8 | 0.00 | 0.00 | 0.00 | 40 | 1009.9 |
| 20260503231608 | 51 | 277 | 4.3 | 5.2 | 0.00 | 0.00 | 0.00 | 41 | 1009.9 |
| 20260503231104 | 51 | 246 | 2.6 | 4.3 | 0.00 | 0.00 | 0.00 | 40 | 1009.9 |
| 20260503230601 | 52 | 276 | 2.6 | 2.6 | 0.00 | 0.00 | 0.00 | 39 | 1009.9 |
| 20260503230053 | 53 | 238 | 3.5 | 4.3 | 0.00 | 0.00 | 0.00 | 38 | 1009.9 |
| 20260503225550 | 53 | 225 | 4.3 | 6.1 | 0.00 | 0.00 | 0.00 | 38 | 1009.9 |
| 20260503225045 | 52 | 256 | 0.9 | 0.9 | 0.00 | 0.00 | 0.00 | 41 | 1009.9 |
| 20260503224543 | 51 | 282 | 0.0 | 0.9 | 0.00 | 0.00 | 0.00 | 41 | 1009.9 |
| 20260503224041 | 51 | 229 | 1.7 | 1.7 | 0.00 | 0.00 | 0.00 | 41 | 1009.9 |
| 20260503223539 | 51 | 277 | 2.6 | 2.6 | 0.00 | 0.00 | 0.00 | 41 | 1009.9 |
| 20260503223034 | 51 | 278 | 2.6 | 2.6 | 0.00 | 0.00 | 0.00 | 41 | 1009.9 |
| 20260503222532 | 51 | 240 | 1.7 | 1.7 | 0.00 | 0.00 | 0.00 | 42 | 1009.9 |
| 20260503222030 | 51 | 314 | 2.6 | 2.6 | 0.00 | 0.00 | 0.00 | 42 | 1009.9 |
| 20260503221528 | 51 | 318 | 1.7 | 1.7 | 0.00 | 0.00 | 0.00 | 40 | 1010.2 |
| 20260503221025 | 51 | 305 | 2.6 | 1.7 | 0.00 | 0.00 | 0.00 | 40 | 1009.9 |
| 20260503220520 | 51 | 230 | 2.6 | 2.6 | 0.00 | 0.00 | 0.00 | 41 | 1010.2 |
| 20260503220017 | 51 | 312 | 2.6 | 2.6 | 0.00 | 0.00 | 0.00 | 40 | 1009.9 |
| 20260503215515 | 51 | 276 | 1.7 | 1.7 | 0.00 | 0.00 | 0.00 | 40 | 1010.2 |
| 20260503215012 | 52 | 267 | 4.3 | 5.2 | 0.00 | 0.00 | 0.00 | 39 | 1009.9 |
| 20260503214511 | 52 | 262 | 0.9 | 1.7 | 0.00 | 0.00 | 0.00 | 40 | 1010.2 |
| 20260503214007 | 51 | 287 | 2.6 | 2.6 | 0.00 | 0.00 | 0.00 | 39 | 1009.9 |
| 20260503213505 | 52 | 321 | 4.3 | 6.1 | 0.00 | 0.00 | 0.00 | 39 | 1009.9 |
| 20260503213001 | 50 | 308 | 2.6 | 2.6 | 0.00 | 0.00 | 0.00 | 41 | 1010.2 |
| 20260503212458 | 50 | 322 | 6.1 | 7.8 | 0.00 | 0.00 | 0.00 | 41 | 1010.2 |
| 20260503211955 | 50 | 263 | 3.5 | 4.3 | 0.00 | 0.00 | 0.00 | 41 | 1010.2 |
| 20260503211452 | 51 | 318 | 3.5 | 6.1 | 0.00 | 0.00 | 0.00 | 41 | 1010.2 |
| 20260503210948 | 50 | 259 | 2.6 | 4.3 | 0.00 | 0.00 | 0.00 | 41 | 1010.2 |
| 20260503210445 | 50 | 304 | 4.3 | 4.3 | 0.00 | 0.00 | 0.00 | 41 | 1010.2 |
| 20260503205939 | 50 | 320 | 4.3 | 6.1 | 0.00 | 0.00 | 0.00 | 43 | 1009.9 |
| 20260503205437 | 50 | 291 | 5.2 | 7.8 | 0.00 | 0.00 | 0.00 | 42 | 1010.2 |
| 20260503204933 | 50 | 323 | 2.6 | 2.6 | 0.00 | 0.00 | 0.00 | 42 | 1010.2 |
| 20260503204430 | 50 | 282 | 4.3 | 5.2 | 0.00 | 0.00 | 0.00 | 42 | 1010.6 |
| 20260503203927 | 48 | 323 | 5.2 | 7.0 | 0.00 | 0.00 | 0.00 | 44 | 1010.6 |
| 20260503203425 | 48 | 332 | 5.2 | 6.1 | 0.00 | 0.00 | 0.00 | 44 | 1010.6 |
| 20260503202921 | 49 | 302 | 5.2 | 7.8 | 0.00 | 0.00 | 0.00 | 44 | 1010.6 |
| 20260503202420 | 49 | 233 | 4.3 | 6.1 | 0.00 | 0.00 | 0.00 | 42 | 1010.2 |
| 20260503201918 | 49 | 294 | 5.2 | 6.1 | 0.00 | 0.00 | 0.00 | 42 | 1010.6 |
| 20260503201414 | 49 | 205 | 4.3 | 8.7 | 0.00 | 0.00 | 0.00 | 41 | 1010.6 |
| 20260503200912 | 50 | 354 | 6.1 | 7.8 | 0.00 | 0.00 | 0.00 | 40 | 1010.6 |
| 20260503200408 | 50 | 267 | 2.6 | 2.6 | 0.00 | 0.00 | 0.00 | 41 | 1010.6 |
| 20260503195905 | 51 | 237 | 4.3 | 6.1 | 0.00 | 0.00 | 0.00 | 39 | 1010.6 |
| 20260503195402 | 51 | 309 | 3.5 | 4.3 | 0.00 | 0.00 | 0.00 | 40 | 1010.6 |
| 20260503194859 | 49 | 290 | 6.1 | 8.7 | 0.00 | 0.00 | 0.00 | 40 | 1010.6 |
| 20260503194355 | 50 | 333 | 4.3 | 6.1 | 0.00 | 0.00 | 0.00 | 39 | 1010.6 |
| 20260503193851 | 50 | 323 | 4.3 | 4.3 | 0.00 | 0.00 | 0.00 | 39 | 1010.6 |
| 20260503193347 | 49 | 293 | 3.5 | 4.3 | 0.00 | 0.00 | 0.00 | 40 | 1010.6 |
| 20260503192843 | 49 | 287 | 4.3 | 5.2 | 0.00 | 0.00 | 0.00 | 40 | 1011.0 |
| 20260503192338 | 49 | 323 | 7.0 | 8.7 | 0.00 | 0.00 | 0.00 | 39 | 1011.0 |
| 20260503191835 | 50 | 322 | 6.1 | 8.7 | 0.00 | 0.00 | 0.00 | 38 | 1011.0 |
| 20260503191332 | 50 | 225 | 4.3 | 5.2 | 0.00 | 0.00 | 0.00 | 37 | 1010.6 |
| 20260503190829 | 50 | 300 | 6.1 | 7.0 | 0.00 | 0.00 | 0.00 | 37 | 1011.0 |
| 20260503190327 | 51 | 282 | 4.3 | 6.1 | 0.00 | 0.00 | 0.00 | 35 | 1011.0 |
| 20260503185824 | 51 | 328 | 3.5 | 5.2 | 0.00 | 0.00 | 0.00 | 37 | 1011.0 |
| 20260503185320 | 50 | 322 | 1.7 | 2.6 | 0.00 | 0.00 | 0.00 | 39 | 1011.0 |
| 20260503184819 | 50 | 301 | 2.6 | 1.7 | 0.00 | 0.00 | 0.00 | 37 | 1011.0 |
| 20260503184316 | 50 | 319 | 3.5 | 6.1 | 0.00 | 0.00 | 0.00 | 37 | 1011.0 |
| 20260503183811 | 49 | 39 | 3.5 | 5.2 | 0.00 | 0.00 | 0.00 | 38 | 1011.0 |
| 20260503183309 | 49 | 129 | 4.3 | 5.2 | 0.00 | 0.00 | 0.00 | 39 | 1011.3 |
| 20260503182806 | 48 | 241 | 6.1 | 7.0 | 0.00 | 0.00 | 0.00 | 38 | 1011.0 |
| 20260503182306 | 50 | 283 | 6.1 | 8.7 | 0.00 | 0.00 | 0.00 | 37 | 1011.0 |
| 20260503181802 | 49 | 214 | 1.7 | 1.7 | 0.00 | 0.00 | 0.00 | 40 | 1011.3 |
| 20260503181259 | 49 | 307 | 2.6 | 5.2 | 0.00 | 0.00 | 0.00 | 39 | 1011.0 |
| 20260503180755 | 48 | 326 | 4.3 | 5.2 | 0.00 | 0.00 | 0.00 | 38 | 1011.3 |
| 20260503180253 | 49 | 250 | 5.2 | 7.0 | 0.00 | 0.00 | 0.00 | 37 | 1011.3 |
| 20260503175749 | 49 | 330 | 5.2 | 9.6 | 0.00 | 0.00 | 0.00 | 36 | 1011.7 |
| 20260503175248 | 49 | 250 | 1.7 | 1.7 | 0.00 | 0.00 | 0.00 | 36 | 1011.3 |
| 20260503174743 | 48 | 277 | 6.1 | 7.8 | 0.00 | 0.00 | 0.00 | 37 | 1011.7 |
| 20260503174242 | 48 | 317 | 2.6 | 2.6 | 0.00 | 0.00 | 0.00 | 37 | 1011.7 |
| 20260503173742 | 48 | 303 | 7.0 | 8.7 | 0.00 | 0.00 | 0.00 | 39 | 1011.7 |
| 20260503173238 | 47 | 324 | 5.2 | 6.1 | 0.00 | 0.00 | 0.00 | 41 | 1011.7 |
| 20260503172735 | 47 | 309 | 2.6 | 2.6 | 0.00 | 0.00 | 0.00 | 42 | 1011.7 |
| 20260503172232 | 47 | 314 | 4.3 | 6.1 | 0.00 | 0.00 | 0.00 | 39 | 1011.7 |
| 20260503171728 | 46 | 287 | 4.3 | 5.2 | 0.00 | 0.00 | 0.00 | 42 | 1011.7 |
| 20260503171226 | 47 | 310 | 7.8 | 9.6 | 0.00 | 0.00 | 0.00 | 40 | 1011.7 |
| 20260503170723 | 47 | 317 | 2.6 | 4.3 | 0.00 | 0.00 | 0.00 | 41 | 1012.0 |
| 20260503170220 | 46 | 243 | 2.6 | 2.6 | 0.00 | 0.00 | 0.00 | 41 | 1012.0 |
| 20260503160141 | 45 | 326 | 7.8 | 9.6 | 0.00 | 0.00 | 0.00 | 39 | 1012.4 |
| 20260503150611 | 42 | 200 | 4.3 | 7.8 | 0.00 | 0.00 | 0.00 | 42 | 1013.1 |
| 20260503150108 | 42 | 306 | 5.2 | 6.1 | 0.00 | 0.00 | 0.00 | 42 | 1013.1 |
| 20260503131001 | 38 | 241 | 2.6 | 4.3 | 0.00 | 0.00 | 0.00 | 51 | 1012.8 |
| 20260503130459 | 39 | 253 | 7.8 | 9.6 | 0.00 | 0.00 | 0.00 | 52 | 1012.8 |
| 20260503110350 | 33 | 295 | 1.7 | 2.6 | 0.00 | 0.00 | 0.00 | 84 | 1012.8 |
| 20260503090229 | 33 | 273 | 2.6 | 2.6 | 0.00 | 0.00 | 0.00 | 84 | 1012.0 |
| 20260503081151 | 33 | 307 | 1.7 | 1.7 | 0.00 | 0.00 | 0.00 | 83 | 1012.0 |
| 20260503080646 | 33 | 320 | 1.7 | 2.6 | 0.00 | 0.00 | 0.00 | 83 | 1011.7 |
| 20260503080144 | 33 | 262 | 0.0 | 0.9 | 0.00 | 0.00 | 0.00 | 84 | 1012.0 |
| 20260503072620 | 33 | 311 | 2.6 | 2.6 | 0.00 | 0.00 | 0.00 | 83 | 1012.0 |
| 20260503072117 | 33 | 299 | 3.5 | 4.3 | 0.00 | 0.00 | 0.00 | 82 | 1012.0 |
| 20260503071614 | 33 | 267 | 2.6 | 2.6 | 0.00 | 0.00 | 0.00 | 82 | 1012.0 |
| 20260503071111 | 34 | 294 | 1.7 | 2.6 | 0.00 | 0.00 | 0.00 | 82 | 1012.4 |
| 20260503070608 | 34 | 273 | 3.5 | 4.3 | 0.00 | 0.00 | 0.00 | 82 | 1012.0 |